Regional Weather Roundup
Issued by NWS State College, PA

Home | Current Version | Previous Version | Graphics & Text | Print | Product List | Glossary Off
Versions: 1 2 3 4 5 6 7 8 9 10 11 12 13 14 15 16 17 18 19 20 21 22 23 24 25 26 27 28 29 30 31 32 33 34 35 36 37 38 39 40 41 42 43 44 45 46 47 48 49 50

000
ASUS41 KCTP 250503
RWRCTP

REGIONAL WEATHER ROUNDUP
NATIONAL WEATHER SERVICE STATE COLLEGE PA
100 AM EDT FRI JUL 25 2014

Note: "fair" indicates few or no clouds below 12,000 feet with no
significant weather and/or obstructions to visibility.

* = STATION THAT DOES NOT REPORT PRECIPITATION /E.G. RAIN...SNOW...ETC/
    THUNDER OR FOG.

PAZ002>004-007>009-013>016-020>023-029>032-250600-
WESTERN PENNSYLVANIA

CITY           SKY/WX    TMP DP  RH WIND       PRES   REMARKS
ERIE           CLEAR     57  50  77 S6        30.07S
MEADVILLE      CLEAR     56  48  74 CALM      30.09S
FRANKLIN*      CLEAR     50  43  76 CALM      30.10S
NEW CASTLE       N/A     51  50  97 CALM      30.09S
BEAVER COUNTY  NOT AVBL
BUTLER*        CLEAR     54  46  76 CALM      30.09S
PITTSBURGH INT CLEAR     61  49  64 N5        30.08R
PITTSBURGH     CLEAR     60  48  64 N5        30.07S
INDIANA*       MOCLDY    55  54  94 CALM      30.11F
LATROBE        CLEAR     57  55  94 CALM      30.08F
WASHINGTON CO* CLEAR     57  50  77 N3        30.09R
$$

PAZ004>006-010>012-017>019-024>028-033>037-041-042-045-046-049>053-250600-
CENTRAL PENNSYLVANIA

CITY           SKY/WX    TMP DP  RH WIND       PRES   REMARKS
BRADFORD       CLEAR     47  45  93 CALM      30.09R
DUBOIS         CLEAR     56  49  77 N5        30.08R
CLEARFIELD     CLEAR     56  50  80 N5        30.08R
JOHNSTOWN      CLEAR     57  49  74 N7        30.08R
ALTOONA        PTCLDY    57  54  89 CALM      30.06R
STATE COLLEGE  CLEAR     59  52  77 N3        30.06R
WILLIAMSPORT   CLEAR     56  49  77 CALM      30.02R
SELINSGROVE    CLEAR     56  52  86 N3        30.03R
FT INDIANTOWN  CLEAR     61  53  74 N5        30.00R
CAPITAL CITY   CLEAR     67  52  58 N3        30.00R
HARRISBURG     CLEAR     62  52  69 NW5       29.99R
YORK           CLEAR     56  54  93 W3        29.99R
$$

PAZ038>040-043-044-047-048-054-055-060>062-067>071-250600-
EASTERN PENNSYLVANIA

CITY           SKY/WX    TMP DP  RH WIND       PRES   REMARKS
SCRANTON       CLEAR     56  49  77 CALM      30.02R
MOUNT POCONO   CLEAR     54  32  43 N8        30.01R
ALLENTOWN      CLEAR     63  51  65 NW3       29.97R
QUAKERTOWN*    PTCLDY    63  54  72 N5        29.98R
READING        CLEAR     63  52  67 NW5       29.98R
LANCASTER      CLEAR     61  52  72 N7        29.99R
COATESVILLE    PTCLDY    63  54  72 N6        29.98R
POTTSTOWN      PTCLDY    63  51  65 N3        29.98R
BLUE BELL      PTCLDY    64  55  72 CALM      29.95R
DOYLESTOWN     PTCLDY    63  53  70 N5        29.95R
WILLOW GROVE   NOT AVBL
NORTH PHILA    PTCLDY    68  52  56 N9        29.95R
PHILADELPHIA   PTCLDY    70  52  52 N8        29.94R
$$



USA.gov is the U.S. government's official web portal to all federal, state and local government web resources and services.